KB7STN Weather Reports


Display with metric or nautical units.
time (UTC)temp
F
wind
direction
speed
MPH
gust
MPH
rain 1hr
in
rain 24hr
in
rain mn
in
humidity
%
barometer
mb
20260902080521 67 232 0.0 0.0 0.00 0.00 0.00 45 1018.2
20260902080021 67 232 0.0 0.0 0.00 0.00 0.00 45 1018.3
20260902075520 66 232 0.0 0.0 0.00 0.00 0.00 45 1018.2
20260902075021 66 232 0.0 0.0 0.00 0.00 0.00 46 1018.3
20260902074521 66 232 0.0 0.0 0.00 0.00 0.00 46 1018.3
20260902074021 66 232 0.0 0.0 0.00 0.00 0.00 46 1018.2
20260902073521 66 232 0.0 0.0 0.00 0.00 0.00 46 1018.2
20260902073021 66 232 0.0 0.0 0.00 0.00 0.00 46 1018.2
20260902072521 66 232 0.0 0.0 0.00 0.00 0.00 46 1018.2
20260902072021 67 232 0.0 0.0 0.00 0.00 0.00 46 1018.1
20260902071521 67 232 0.0 0.0 0.00 0.00 0.00 46 1018.1
20260902071021 67 232 0.0 1.0 0.00 0.00 0.00 46 1018.0
20260902070521 67 232 0.0 0.0 0.00 0.00 0.00 45 1018.1
20260902070021 67 232 0.0 0.0 0.00 0.00 0.00 45 1018.1
20260902065521 67 232 0.0 2.0 0.00 0.00 0.00 44 1018.1
20260902065021 67 232 0.0 4.0 0.00 0.00 0.00 44 1018.2
20260902064521 67 234 0.0 0.0 0.00 0.00 0.00 43 1018.2
20260902064021 67 234 0.0 0.0 0.00 0.00 0.00 43 1018.1
20260902063521 68 234 0.0 0.0 0.00 0.00 0.00 43 1018.1
20260902063021 68 234 0.0 2.0 0.00 0.00 0.00 43 1018.1
20260902062521 68 232 0.0 0.0 0.00 0.00 0.00 44 1018.1
20260902062021 68 232 0.0 0.0 0.00 0.00 0.00 44 1018.1
20260902061521 68 232 0.0 0.0 0.00 0.00 0.00 46 1018.1
20260902061021 68 232 0.0 0.0 0.00 0.00 0.00 46 1018.2
20260902060521 68 232 0.0 0.0 0.00 0.00 0.00 46 1018.2
20260902060021 68 232 0.0 0.0 0.00 0.00 0.00 46 1018.2
20260902055521 68 232 0.0 0.0 0.00 0.00 0.00 47 1018.1
20260902055021 69 232 0.0 0.0 0.00 0.00 0.00 47 1018.1
20260902054521 69 232 0.0 0.0 0.00 0.00 0.00 45 1018.1
20260902054021 69 232 0.0 0.0 0.00 0.00 0.00 44 1018.1
20260902053521 69 232 0.0 0.0 0.00 0.00 0.00 44 1018.1
20260902053021 69 232 0.0 0.0 0.00 0.00 0.00 45 1018.2
20260902052521 69 232 0.0 1.0 0.00 0.00 0.00 46 1018.1
20260902052021 69 231 0.0 3.0 0.00 0.00 0.00 46 1018.2
20260902051521 69 225 0.0 0.0 0.00 0.00 0.00 47 1018.2
20260902051021 69 225 0.0 1.0 0.00 0.00 0.00 47 1018.2
20260902050521 69 225 0.0 3.0 0.00 0.00 0.00 48 1018.2
20260902050021 69 225 0.0 4.0 0.00 0.00 0.00 48 1018.3
20260902045521 70 219 0.0 0.0 0.00 0.00 0.00 48 1018.3
20260902045021 70 219 0.0 0.0 0.00 0.00 0.00 47 1018.4
20260902044521 70 219 0.0 0.0 0.00 0.00 0.00 47 1018.5
20260902044021 70 219 0.0 0.0 0.00 0.00 0.00 47 1018.4
20260902043521 70 219 0.0 3.0 0.00 0.00 0.00 47 1018.4
20260902043021 70 218 0.0 4.0 0.00 0.00 0.00 47 1018.4
20260902042521 70 217 0.0 0.0 0.00 0.00 0.00 47 1018.3
20260902042021 71 213 0.0 2.0 0.00 0.00 0.00 47 1018.3
20260902041521 71 212 0.0 1.0 0.00 0.00 0.00 47 1018.3
20260902041021 71 213 0.0 1.0 0.00 0.00 0.00 47 1018.3
20260902040521 71 213 0.0 1.0 0.00 0.00 0.00 47 1018.3
20260902040021 71 209 0.0 5.0 0.00 0.00 0.00 47 1018.4
20260902035521 71 211 0.0 4.0 0.00 0.00 0.00 47 1018.3
20260902035021 70 198 0.0 1.0 0.00 0.00 0.00 47 1018.2
20260902034521 70 196 0.0 0.0 0.00 0.00 0.00 47 1018.3
20260902034021 70 196 0.0 0.0 0.00 0.00 0.00 48 1018.2
20260902033521 69 196 0.0 0.0 0.00 0.00 0.00 48 1018.2
20260902033021 69 195 0.0 0.0 0.00 0.00 0.00 47 1018.3
20260902032521 68 194 0.0 0.0 0.00 0.00 0.00 48 1018.2
20260902032021 68 194 0.0 0.0 0.00 0.00 0.00 48 1018.1
20260902031521 69 194 0.0 0.0 0.00 0.00 0.00 50 1018.1
20260902031021 69 194 0.0 0.0 0.00 0.00 0.00 49 1018.0
20260902030521 70 194 0.0 0.0 0.00 0.00 0.00 49 1018.0
20260902030021 70 194 0.0 0.0 0.00 0.00 0.00 49 1017.9
20260902025521 71 194 0.0 0.0 0.00 0.00 0.00 47 1017.8
20260902025021 71 194 0.0 0.0 0.00 0.00 0.00 47 1017.8
20260902024521 71 194 0.0 0.0 0.00 0.00 0.00 47 1017.7
20260902024021 72 194 0.0 0.0 0.00 0.00 0.00 47 1017.6
20260902023521 72 194 0.0 0.0 0.00 0.00 0.00 47 1017.5
20260902023021 72 194 0.0 0.0 0.00 0.00 0.00 46 1017.5
20260902022521 73 194 0.0 0.0 0.00 0.00 0.00 45 1017.4
20260902022021 73 194 0.0 0.0 0.00 0.00 0.00 46 1017.4
20260902021521 73 194 0.0 0.0 0.00 0.00 0.00 44 1017.4
20260902021021 74 194 0.0 1.0 0.00 0.00 0.00 44 1017.4
20260902020521 74 194 0.0 0.0 0.00 0.00 0.00 44 1017.5
20260902020021 74 194 0.0 4.0 0.00 0.00 0.00 44 1017.4
20260902015521 74 171 0.0 0.0 0.00 0.00 0.00 44 1017.5
20260902015021 74 171 0.0 0.0 0.00 0.00 0.00 43 1017.5
20260902014521 74 171 0.0 0.0 0.00 0.00 0.00 43 1017.6
20260902014021 75 171 0.0 0.0 0.00 0.00 0.00 42 1017.5
20260902013522 75 171 0.0 1.0 0.00 0.00 0.00 41 1017.5
20260902013021 75 171 0.0 1.0 0.00 0.00 0.00 41 1017.5
20260902012521 75 170 0.0 0.0 0.00 0.00 0.00 41 1017.6
20260902012021 75 170 0.0 0.0 0.00 0.00 0.00 42 1017.6
20260902011521 75 170 0.0 4.0 0.00 0.00 0.00 41 1017.6
20260902011021 75 170 0.0 0.0 0.00 0.00 0.00 42 1017.5
20260902010521 75 170 0.0 0.0 0.00 0.00 0.00 42 1017.7
20260902010021 76 170 0.0 4.0 0.00 0.00 0.00 42 1017.7
20260902005521 76 190 0.0 3.0 0.00 0.00 0.00 43 1017.7
20260902005021 76 190 1.0 3.0 0.00 0.00 0.00 42 1017.8
20260902004521 76 199 1.0 5.0 0.00 0.00 0.00 42 1018.0
20260902004021 76 167 1.0 5.0 0.00 0.00 0.00 43 1018.1
20260902003521 76 179 2.0 10.0 0.00 0.00 0.00 43 1018.1
20260902003021 76 182 2.0 5.0 0.00 0.00 0.00 42 1018.1
20260902002521 76 173 3.0 5.0 0.00 0.00 0.00 43 1018.2
20260902002021 76 161 3.0 11.0 0.00 0.00 0.00 42 1018.2
20260902001521 76 168 2.0 7.0 0.00 0.00 0.00 42 1018.2
20260902001021 77 192 1.0 5.0 0.00 0.00 0.00 42 1018.3
20260902000521 77 207 1.0 4.0 0.00 0.00 0.00 42 1018.4
20260902000021 77 212 3.0 8.0 0.00 0.00 0.00 42 1018.3
20260901235521 77 182 2.0 10.0 0.00 0.00 0.00 42 1018.5
20260901235021 78 158 2.0 7.0 0.00 0.00 0.00 41 1018.5
20260901234521 78 202 2.0 6.0 0.00 0.00 0.00 40 1018.5
20260901234021 78 180 2.0 7.0 0.00 0.01 0.00 40 1018.5
20260901233521 79 188 2.0 2.0 0.00 0.01 0.00 40 1018.5
20260901233021 79 145 2.0 7.0 0.00 0.01 0.00 38 1018.6
20260901232521 80 161 3.0 6.0 0.00 0.01 0.00 38 1018.6
20260901232021 80 180 2.0 10.0 0.00 0.01 0.00 37 1018.7
20260901231521 80 241 2.0 6.0 0.00 0.01 0.00 32 1018.6
20260901231021 80 195 3.0 8.0 0.00 0.01 0.00 32 1019.0
20260901230521 80 193 3.0 7.0 0.00 0.01 0.00 32 1019.0
20260901230021 80 196 3.0 9.0 0.00 0.01 0.00 32 1019.1
20260901225521 80 230 2.0 5.0 0.00 0.01 0.00 38 1019.2
20260901225021 80 242 2.0 7.0 0.00 0.01 0.00 34 1019.1
20260901224521 79 225 2.0 6.0 0.00 0.01 0.00 35 1019.2
20260901224021 78 232 2.0 6.0 0.00 0.23 0.00 40 1019.4
20260901223521 79 158 3.0 10.0 0.00 0.23 0.00 43 1019.4
20260901223021 79 153 3.0 6.0 0.00 0.23 0.00 43 1019.6
20260901222521 79 146 3.0 6.0 0.00 0.23 0.00 42 1019.6
20260901222021 80 232 3.0 11.0 0.00 0.23 0.00 40 1019.6
20260901221521 80 174 3.0 7.0 0.00 0.23 0.00 39 1019.6
20260901221021 81 209 2.0 8.0 0.00 0.23 0.00 38 1019.8
20260901220521 81 219 2.0 6.0 0.00 0.23 0.00 34 1019.8
20260901220021 80 169 2.0 7.0 0.00 0.23 0.00 35 1019.9
20260901215522 80 225 2.0 6.0 0.00 0.23 0.00 35 1019.9
20260901215022 79 223 2.0 5.0 0.00 0.23 0.00 37 1020.0
20260901214522 79 217 3.0 9.0 0.00 0.23 0.00 38 1020.2
20260901214022 80 283 3.0 9.0 0.00 0.36 0.00 35 1020.1
20260901213522 79 250 3.0 7.0 0.00 0.36 0.00 35 1020.5
20260901213022 79 192 3.0 8.0 0.00 0.36 0.00 37 1020.3
20260901212522 79 201 3.0 9.0 0.00 0.36 0.00 38 1020.7
20260901212022 79 188 2.0 9.0 0.00 0.36 0.00 36 1020.7
20260901211522 79 205 1.0 7.0 0.00 0.36 0.00 37 1020.7
20260901211022 79 243 1.0 7.0 0.00 0.36 0.00 40 1020.9
20260901210522 78 198 2.0 11.0 0.00 0.36 0.00 39 1020.6
20260901210022 78 241 2.0 8.0 0.00 0.36 0.00 40 1021.0
20260901205522 77 202 1.0 9.0 0.00 0.36 0.00 44 1020.7
20260901205022 76 241 1.0 6.0 0.00 0.36 0.00 44 1020.9
20260901204522 77 241 1.0 3.0 0.00 0.36 0.00 43 1021.2
20260901204022 77 241 1.0 3.0 0.00 0.36 0.00 43 1021.1
20260901203522 77 248 2.0 7.0 0.00 0.36 0.00 44 1021.1
20260901203022 77 252 2.0 3.0 0.00 0.36 0.00 43 1021.2
20260901202522 77 274 3.0 8.0 0.00 0.36 0.00 44 1021.1
20260901202022 76 231 3.0 8.0 0.00 0.36 0.00 43 1021.4
20260901201522 76 216 2.0 5.0 0.00 0.36 0.00 45 1021.4
20260901201022 77 174 1.0 3.0 0.00 0.36 0.00 46 1021.4
20260901200522 77 177 2.0 3.0 0.00 0.36 0.00 47 1021.6
20260901200022 77 199 2.0 7.0 0.00 0.36 0.00 46 1021.5
20260901195522 76 163 2.0 7.0 0.00 0.36 0.00 48 1021.7
20260901195022 76 169 2.0 8.0 0.00 0.36 0.00 46 1021.7
20260901194524 76 217 2.0 5.0 0.00 0.36 0.00 47 1021.9
20260901194022 76 232 3.0 9.0 0.00 0.36 0.00 48 1021.9
20260901193522 76 152 3.0 8.0 0.00 0.36 0.00 47 1022.0
20260901193022 76 155 2.0 7.0 0.00 0.36 0.00 47 1022.0
20260901192522 76 154 2.0 7.0 0.00 0.36 0.00 50 1022.1
20260901192022 75 206 2.0 5.0 0.00 0.36 0.00 50 1022.4
20260901191522 74 198 2.0 5.0 0.00 0.36 0.00 51 1022.4
20260901191022 74 181 2.0 7.0 0.00 0.36 0.00 51 1022.4
20260901190522 73 178 3.0 6.0 0.00 0.36 0.00 51 1022.3
20260901190022 73 186 3.0 10.0 0.00 0.36 0.00 50 1022.5
20260901185522 73 161 1.0 8.0 0.00 0.36 0.00 51 1022.4
20260901185022 73 193 1.0 4.0 0.00 0.36 0.00 52 1022.5
20260901184522 73 194 3.0 6.0 0.00 0.36 0.00 52 1022.6
20260901184022 73 163 2.0 9.0 0.00 0.36 0.00 51 1022.6
20260901183522 72 206 2.0 5.0 0.00 0.36 0.00 52 1022.8
20260901183022 72 207 2.0 5.0 0.00 0.36 0.00 53 1022.8
20260901182522 71 205 2.0 4.0 0.00 0.36 0.00 53 1022.7
20260901182022 72 211 3.0 7.0 0.00 0.36 0.00 52 1022.9
20260901181522 72 220 3.0 7.0 0.00 0.36 0.00 52 1022.9
20260901181022 72 225 2.0 7.0 0.00 0.36 0.00 52 1023.0
20260901180522 72 202 2.0 5.0 0.00 0.36 0.00 53 1022.9
20260901180022 71 202 2.0 5.0 0.00 0.36 0.00 52 1022.9
20260901175522 71 201 2.0 4.0 0.00 0.36 0.00 52 1022.9
20260901175022 72 200 3.0 5.0 0.00 0.36 0.00 51 1023.1
20260901174522 72 204 3.0 7.0 0.00 0.36 0.00 51 1023.0
20260901174022 72 193 2.0 4.0 0.00 0.36 0.00 51 1022.9
20260901173522 72 203 2.0 5.0 0.00 0.36 0.00 53 1023.0
20260901173022 72 201 3.0 5.0 0.00 0.36 0.00 52 1022.9
20260901172522 72 201 2.0 5.0 0.00 0.36 0.00 52 1022.8
20260901172022 71 202 2.0 5.0 0.00 0.36 0.00 52 1022.8
20260901171522 72 194 2.0 6.0 0.00 0.36 0.00 51 1022.9
20260901171022 71 222 3.0 7.0 0.00 0.36 0.00 52 1022.9
20260901170522 71 250 2.0 6.0 0.00 0.36 0.00 53 1022.9
20260901170022 71 181 2.0 5.0 0.00 0.36 0.00 51 1022.8
20260901165522 71 188 2.0 6.0 0.00 0.36 0.00 53 1022.9
20260901165022 71 180 3.0 6.0 0.00 0.36 0.00 52 1022.9
20260901164522 70 184 3.0 5.0 0.00 0.36 0.00 53 1022.8
20260901164022 70 207 3.0 6.0 0.00 0.36 0.00 54 1022.7
20260901163522 70 172 3.0 6.0 0.00 0.36 0.00 54 1022.7
20260901163022 69 196 3.0 7.0 0.00 0.36 0.00 54 1022.6
20260901162522 69 211 4.0 7.0 0.00 0.36 0.00 54 1022.7
20260901162022 69 218 3.0 7.0 0.00 0.36 0.00 53 1022.6
20260901161522 69 238 3.0 8.0 0.00 0.36 0.00 54 1022.5
20260901161022 69 213 3.0 6.0 0.00 0.36 0.00 52 1022.5
20260901160522 69 205 4.0 7.0 0.00 0.36 0.00 53 1022.4
20260901160022 68 179 4.0 8.0 0.00 0.36 0.00 53 1022.5
20260901155522 68 209 4.0 6.0 0.00 0.36 0.00 53 1022.3
20260901155022 68 214 3.0 8.0 0.00 0.36 0.00 53 1022.4
20260901154522 68 202 3.0 7.0 0.00 0.36 0.00 54 1022.3
20260901154022 68 190 2.0 4.0 0.00 0.36 0.00 53 1022.4
20260901153522 68 185 2.0 5.0 0.00 0.36 0.00 54 1022.5
20260901153022 67 188 2.0 5.0 0.00 0.36 0.00 55 1022.6
20260901152522 67 203 3.0 4.0 0.00 0.36 0.00 57 1022.7
20260901152022 66 215 3.0 8.0 0.00 0.36 0.00 57 1022.8
20260901151522 66 211 2.0 6.0 0.00 0.36 0.00 58 1022.8
20260901151022 65 221 2.0 4.0 0.00 0.36 0.00 61 1022.9
20260901150522 64 217 2.0 5.0 0.00 0.36 0.00 61 1022.8
20260901150022 63 220 2.0 6.0 0.00 0.36 0.00 61 1022.9
20260901145522 63 203 2.0 5.0 0.00 0.36 0.00 63 1022.8
20260901145022 63 202 2.0 4.0 0.00 0.36 0.00 62 1022.8
20260901144524 63 195 2.0 5.0 0.00 0.36 0.00 62 1022.8
20260901144022 64 179 2.0 6.0 0.00 0.36 0.00 60 1022.7
20260901143522 64 194 2.0 6.0 0.00 0.36 0.00 59 1022.6
20260901143022 64 221 2.0 7.0 0.00 0.36 0.00 59 1022.6
20260901142522 64 217 3.0 7.0 0.00 0.36 0.00 60 1022.5
20260901142022 63 180 3.0 8.0 0.00 0.36 0.00 61 1022.5
20260901141522 63 196 3.0 6.0 0.00 0.36 0.00 61 1022.6
20260901141022 63 203 3.0 9.0 0.00 0.36 0.00 60 1022.6
20260901140522 62 223 3.0 7.0 0.00 0.36 0.00 62 1022.5
20260901140022 62 202 3.0 7.0 0.00 0.36 0.00 63 1022.4
20260901135524 61 209 2.0 6.0 0.00 0.36 0.00 64 1022.5
20260901135023 61 237 2.0 6.0 0.00 0.36 0.00 65 1022.4
20260901134522 61 200 2.0 5.0 0.00 0.36 0.00 65 1022.3
20260901134022 60 198 3.0 6.0 0.00 0.36 0.00 65 1022.3
20260901133522 60 198 3.0 7.0 0.00 0.36 0.00 65 1022.4
20260901133022 60 233 2.0 7.0 0.00 0.36 0.00 66 1022.5
20260901132522 60 218 2.0 5.0 0.00 0.36 0.00 66 1022.5
20260901132022 60 208 3.0 12.0 0.00 0.36 0.00 65 1022.5
20260901131522 60 169 3.0 12.0 0.00 0.36 0.00 66 1022.4
20260901131022 60 178 2.0 5.0 0.00 0.36 0.00 66 1022.3
20260901130522 60 179 2.0 7.0 0.00 0.36 0.00 66 1022.3
20260901130022 60 188 2.0 8.0 0.00 0.36 0.00 66 1022.3
20260901125522 60 205 2.0 5.0 0.00 0.36 0.00 66 1022.2
20260901125023 60 203 1.0 4.0 0.00 0.36 0.00 66 1022.1
20260901124523 60 194 2.0 6.0 0.00 0.36 0.00 66 1022.1
20260901124023 60 182 2.0 6.0 0.00 0.36 0.00 67 1022.2
20260901123522 60 215 2.0 4.0 0.00 0.36 0.00 66 1022.2
20260901123022 60 217 2.0 4.0 0.00 0.36 0.00 66 1022.1
20260901122523 60 227 2.0 4.0 0.00 0.36 0.00 66 1022.1
20260901122023 60 232 2.0 4.0 0.00 0.36 0.00 66 1022.1
20260901121523 60 198 2.0 5.0 0.00 0.36 0.00 67 1022.2
20260901121023 60 204 3.0 5.0 0.00 0.36 0.00 68 1022.2
20260901120523 60 201 3.0 5.0 0.00 0.36 0.00 68 1022.3
20260901120023 60 221 3.0 7.0 0.00 0.36 0.00 68 1022.4
20260901115523 60 202 3.0 5.0 0.00 0.36 0.00 68 1022.3
20260901115023 60 205 2.0 6.0 0.00 0.36 0.00 69 1022.4
20260901114523 60 209 2.0 5.0 0.00 0.36 0.00 69 1022.2
20260901114023 60 182 2.0 5.0 0.00 0.36 0.00 69 1022.2
20260901113523 60 182 2.0 4.0 0.00 0.36 0.00 69 1022.1
20260901113023 60 178 2.0 6.0 0.00 0.36 0.00 69 1022.1
20260901112523 60 184 2.0 5.0 0.00 0.36 0.00 68 1022.0
20260901112023 60 189 2.0 4.0 0.00 0.36 0.00 68 1022.0
20260901111523 60 186 2.0 5.0 0.00 0.36 0.00 68 1022.0
20260901111023 60 189 2.0 5.0 0.00 0.36 0.00 68 1022.0
20260901110523 60 189 2.0 4.0 0.00 0.36 0.00 68 1022.2
20260901110023 60 184 2.0 4.0 0.00 0.36 0.00 68 1022.2
20260901105523 60 192 2.0 4.0 0.00 0.36 0.00 68 1022.2
20260901105023 60 207 2.0 6.0 0.00 0.36 0.00 68 1022.2
20260901104523 60 189 3.0 5.0 0.00 0.36 0.00 69 1022.2
20260901104023 60 207 3.0 6.0 0.00 0.36 0.00 69 1022.2
20260901103523 60 183 3.0 7.0 0.00 0.36 0.00 70 1022.2
20260901103023 59 171 3.0 5.0 0.00 0.36 0.00 70 1022.2
20260901102523 59 158 3.0 8.0 0.00 0.36 0.00 71 1022.3
20260901102023 59 160 3.0 9.0 0.00 0.36 0.00 71 1022.3
20260901101523 59 207 2.0 7.0 0.00 0.36 0.00 71 1022.4
20260901101023 59 211 2.0 6.0 0.00 0.36 0.00 72 1022.4
20260901100523 59 215 3.0 8.0 0.00 0.36 0.00 72 1022.4
20260901100023 59 217 2.0 5.0 0.00 0.36 0.00 72 1022.4
20260901095523 59 218 1.0 4.0 0.00 0.36 0.00 72 1022.5
20260901095023 59 218 2.0 6.0 0.00 0.36 0.00 72 1022.5
20260901094523 59 216 2.0 6.0 0.00 0.36 0.00 71 1022.6
20260901094023 59 215 1.0 4.0 0.00 0.36 0.00 71 1022.5
20260901093523 59 215 1.0 3.0 0.00 0.36 0.00 70 1022.6
20260901093023 59 215 2.0 4.0 0.00 0.36 0.00 70 1022.3
20260901092523 60 215 2.0 5.0 0.00 0.36 0.00 70 1022.3
20260901092027 60 215 2.0 4.0 0.00 0.36 0.00 70 1022.2
20260901091523 60 219 2.0 5.0 0.00 0.36 0.00 70 1022.3
20260901091023 59 219 2.0 6.0 0.00 0.36 0.00 71 1022.3
20260901090523 59 219 2.0 5.0 0.00 0.36 0.00 71 1022.3
20260901090023 59 219 1.0 5.0 0.00 0.36 0.00 72 1022.3
20260901085523 59 220 1.0 4.0 0.00 0.36 0.00 72 1022.4
20260901085023 59 220 1.0 3.0 0.00 0.36 0.00 72 1022.4
20260901084523 59 219 2.0 4.0 0.00 0.36 0.00 72 1022.4
20260901084023 59 219 2.0 5.0 0.00 0.36 0.00 73 1022.4
20260901083523 59 220 2.0 7.0 0.00 0.36 0.00 73 1022.5
20260901083023 58 224 1.0 6.0 0.00 0.36 0.00 74 1022.5
20260901082523 58 226 1.0 2.0 0.00 0.36 0.00 74 1022.6
20260901082023 59 226 2.0 4.0 0.00 0.36 0.00 73 1022.7
20260901081523 59 226 2.0 5.0 0.00 0.36 0.00 73 1022.6
20260901081023 59 225 2.0 5.0 0.00 0.36 0.00 73 1022.6